Weather History for Mayport NS, FL

Change the Weather History Date:

Friday, December 28, 2012

  Actual Average Record
Temperature  
Mean Temperature 51 °F -  
Max Temperature 62 °F 60 °F 81 °F (2014)
Min Temperature 42 °F 47 °F 30 °F (2010)
Degree Days  
Heating Degree Days 14    
Growing Degree Days 1 (Base 50)    
Moisture  
Dew Point 46 °F    
Average Humidity 81    
Maximum Humidity 92    
Minimum Humidity 57    
Precipitation  
Precipitation 0.00 in - - ()
Sea Level Pressure  
Sea Level Pressure 30.05 in    
Wind  
Wind Speed 2 mph (ENE)    
Max Wind Speed 9 mph    
Max Gust Speed -    
Visibility 10 miles    
Events      
Averages and records for this station are not official NWS values.
T = Trace of Precipitation, MM = Missing Value Source: NWS Daily Summary

Daily Weather History Graph

Daily Weather History Graph

Search for Another Location

Airport:

Trip Planner

Search our weather history database for the weather conditions in past years. The results will help you decide how hot, cold, wet, or windy it might be!

Date:

Astronomy

Dec. 28, 2012 Rise Set
Actual Time 7:21 AM EST 5:33 PM EST
Civil Twilight 6:55 AM EST 6:00 PM EST
Nautical Twilight 6:25 AM EST 6:30 PM EST
Astronomical Twilight 5:55 AM EST 6:59 PM EST
Moon 6:04 PM EST (12/28) 7:18 AM EST (12/28)
Length of Visible Light 11h 05m
Length of Day
10h 12m
Full, 100% of the Moon is Illuminated
Dec 28
Full
Jan 4
Last Quarter
Jan 11
New
Jan 18
First Quarter
Jan 26
Full

Hourly Weather History & Observations

Time (EST) Temp. Windchill Dew Point Humidity Pressure Visibility Wind Dir Wind Speed Gust Speed Precip Events Conditions
12:52 AM 45.0 °F - 39.0 °F 80% 30.09 in 10.0 mi Calm Calm - N/A   Clear
1:52 AM 44.1 °F - 41.0 °F 89% 30.09 in 10.0 mi Calm Calm - N/A   Clear
2:52 AM 43.0 °F 40.3 °F 39.9 °F 89% 30.09 in 10.0 mi WNW 4.6 mph - N/A   Clear
3:52 AM 42.1 °F - 39.0 °F 89% 30.09 in 10.0 mi Calm Calm - N/A   Clear
4:52 AM 42.1 °F 40.2 °F 39.9 °F 92% 30.09 in 10.0 mi West 3.5 mph - N/A   Clear
5:52 AM 42.1 °F 39.2 °F 39.0 °F 89% 30.11 in 10.0 mi WNW 4.6 mph - N/A   Clear
6:52 AM 42.1 °F - 39.0 °F 89% 30.11 in 10.0 mi Calm Calm - N/A   Clear
7:31 AM 42.8 °F 39.3 °F 39.2 °F 87% 30.13 in 10.0 mi WNW 5.8 mph - N/A   Mostly Cloudy
7:52 AM 42.1 °F 38.4 °F 39.0 °F 89% 30.14 in 9.0 mi WNW 5.8 mph - N/A   Scattered Clouds
8:52 AM 46.9 °F - 41.0 °F 80% 30.12 in 10.0 mi Calm Calm - N/A   Scattered Clouds
9:52 AM 51.1 °F - 44.1 °F 77% 30.15 in 10.0 mi Calm Calm - N/A   Mostly Cloudy
10:52 AM 55.0 °F - 39.9 °F 57% 30.13 in 10.0 mi Calm Calm - N/A   Mostly Cloudy
11:52 AM 55.9 °F - 43.0 °F 62% 30.10 in 10.0 mi East 3.5 mph - N/A   Mostly Cloudy
12:52 PM 59.0 °F - 45.0 °F 60% 30.06 in 10.0 mi ENE 5.8 mph - N/A   Mostly Cloudy
1:52 PM 59.0 °F - 46.0 °F 62% 30.04 in 10.0 mi ENE 3.5 mph - N/A   Mostly Cloudy
2:52 PM 59.0 °F - 48.0 °F 67% 30.01 in 10.0 mi SE 6.9 mph - N/A   Mostly Cloudy
3:52 PM 59.0 °F - 50.0 °F 72% 29.99 in 10.0 mi SE 9.2 mph - N/A   Mostly Cloudy
4:52 PM 59.0 °F - 51.1 °F 75% 29.99 in 10.0 mi ESE 3.5 mph - N/A   Mostly Cloudy
5:52 PM 55.9 °F - 52.0 °F 87% 30.01 in 10.0 mi NNW 3.5 mph - N/A   Scattered Clouds
6:52 PM 55.0 °F - 52.0 °F 89% 30.01 in 10.0 mi Calm Calm - N/A   Mostly Cloudy
7:52 PM 55.9 °F - 53.1 °F 90% 30.01 in 10.0 mi NE 4.6 mph - N/A   Clear
8:52 PM 57.9 °F - 54.0 °F 87% 29.99 in 10.0 mi ENE 3.5 mph - N/A   Clear
9:52 PM 57.9 °F - 55.0 °F 90% 29.97 in 10.0 mi SE 3.5 mph - N/A   Overcast
10:52 PM 57.9 °F - 55.0 °F 90% 29.95 in 10.0 mi SSE 3.5 mph - N/A   Overcast
11:04 PM 60.8 °F - 55.4 °F 82% 29.94 in 10.0 mi Calm Calm - N/A   Overcast
11:52 PM 62.1 °F - 57.0 °F 84% 29.91 in 10.0 mi South 6.9 mph - N/A   Overcast